This demonstration page uses our WeatherBlox Daily Observations layout. Learn more.

Left ArrowRight Arrow

Hourly Observations for January 6, 2016

Temp ( °F °C ) Dew Point ( °F °C ) Humidity (%) Winds ( mph kmh ) Pressure ( in mb ) Visibility ( mi km ) Precip ( " mm )
12:53 am 00:53 Mostly Cloudy 40 4.4 36 2.2 86 86 SE 9 15 30.00 1016 10 16 0.00 0.00
1:53 am 01:53 Mostly Cloudy 40 4.4 36 2.2 86 86 ESE 10 17 29.97 1015 10 16 0.00 0.00
2:53 am 02:53 Mostly Cloudy 40 4.4 37 2.8 89 89 SE 9 15 29.97 1015 10 16 0.00 0.00
3:53 am 03:53 Cloudy with Light Rain 40 4.4 37 2.8 89 89 ESE 13 20 29.95 1014 8 13 0.00 0.03
4:06 am 04:06 Cloudy with Light Rain 39 4 37 3 93 93 SE 12 19 30.03 1017 7 11 0.00 0.00
4:22 am 04:22 Cloudy 39 4 37 3 93 93 ESE 9 15 30.03 1017 7 11 0.00 0.00
4:53 am 04:53 Cloudy with Mist and Fog 41 5 38 3.3 89 89 SSE 8 13 29.94 1014 6 10 0.00 0.03
5:53 am 05:53 Cloudy with Light Rain 41 5 39 3.9 93 93 S 3 6 29.97 1015 5 8 0.00 0.03
6:16 am 06:16 Cloudy with Light Rain 41 5 39 4 93 93 E 10 17 30.00 1016 3 5 0.00 0.00
6:53 am 06:53 Cloudy with Mist and Fog 41 5 39 3.9 93 93 ESE 9 15 29.94 1014 5 8 0.06 1.52
7:53 am 07:53 Cloudy with Mist and Fog 42 5.6 40 4.4 92 92 SSE 7 11 29.95 1014 5 8 0.00 0.00
8:53 am 08:53 Cloudy with Mist and Fog 43 6.1 41 5 93 93 S 6 9 29.97 1015 4 6 0.00 0.00
9:53 am 09:53 Cloudy with Mist and Fog 44 6.7 41 5 89 89 SSE 8 13 29.98 1015 4 6 0.00 0.00
10:53 am 10:53 Cloudy with Mist and Fog 44 6.7 42 5.6 93 93 SE 7 11 29.98 1015 5 8 0.00 0.00
11:53 am 11:53 Cloudy with Mist and Fog 45 7.2 42 5.6 90 90 E 3 6 29.95 1014 6 10 0.00 0.00
12:05 pm 12:05 Cloudy 46 7.8 42 5.6 86 86 E 3 6 29.97 1015 7 11 0.00 0.00
12:53 pm 12:53 Cloudy 48 8.9 43 6.1 83 83 SSE 5 7 29.91 1013 10 16 0.00 0.00
1:53 pm 13:53 Cloudy 48 8.9 44 6.7 86 86 SE 5 7 29.86 1011 10 16 0.00 0.00
2:53 pm 14:53 Cloudy 50 10 44 6.7 80 80 N 5 7 29.85 1011 10 16 0.00 0.00
3:23 pm 15:23 Mostly Cloudy 52 11.1 45 7.2 77 77 NNE 6 9 29.85 1011 10 16 0.00 0.00
3:53 pm 15:53 Partly Cloudy 53 11.7 45 7.2 74 74 VRB 3 6 29.83 1010 10 16 0.00 0.00
4:53 pm 16:53 Cloudy with Rain 51 10.6 46 7.8 83 83 WSW 9 15 29.87 1012 5 8 0.02 0.51
5:03 pm 17:03 Cloudy with Rain 50 10 46 8 88 88 VRB 3 6 29.85 1011 3 4 0.00 0.00
5:10 pm 17:10 Cloudy with Light Rain 52 11 46 8 82 82 NNE 5 7 29.85 1011 10 16 0.00 0.00
5:53 pm 17:53 Mostly Cloudy 51 10.6 48 8.9 89 89 SSE 5 7 29.84 1010 10 16 0.03 0.76
6:53 pm 18:53 Partly Cloudy 47 8.3 44 6.7 90 90 S 7 11 29.85 1011 10 16 0.00 0.00
7:53 pm 19:53 Clear 45 7.2 42 5.6 90 90 S 5 7 29.86 1011 10 16 0.00 0.00
8:53 pm 20:53 Clear 44 6.7 41 5 89 89 S 9 15 29.88 1012 10 16 0.00 0.00
9:53 pm 21:53 Clear 43 6.1 40 4.4 89 89 S 8 13 29.89 1012 10 16 0.00 0.00
10:53 pm 22:53 Clear 43 6.1 40 4.4 89 89 S 7 11 29.89 1012 10 16 0.00 0.00
11:53 pm 23:53 Clear 45 7.2 41 5 86 86 SSW 15 24 29.87 1012 10 16 0.00 0.00

Powered by AerisWeather